User: anonymous   Login
Location: Unspecified
(0.0000°N, 0.0000°E)
Time: 11:54:57
(UTC+01:00)
Language:

H-2A R/B - Orbit

View from above orbital plane
View from above orbital plane
View from above satellite
View from above satellite

Ground track
Ground track

The orbit data is extracted from the following two-line orbital elements,

1 28932U 06002B   15059.83437208  .00002818  00000-0  28003-3 0  9992
2 28932 098.2703 296.9381 0093589 176.7149 315.9320 14.89366051492766
Epoch (UTC): 28 February 2015 20:01:29
Eccentricity: 0.0093589
inclination: 98.2703°
perigee height: 534 km
apogee height: 665 km
right ascension of ascending node: 296.9381°
argument of perigee: 176.7149°
revolutions per day: 14.89366051
mean anomaly at epoch: 315.9320°
orbit number at epoch: 49276

The dashed part of the orbit path shows where the satellite is in the earth's shadow,  

DLR